Alexandria, LA

12:50 AM CST on February 14, 2016 (GMT -0600)
Alexandria International

Weather History for KAEX - January, 2012

Change the Weather History Date:

Friday, January 27, 2012

  Actual Average Record
Temperature  
Mean Temperature 52 °F 49 °F  
Max Temperature 65 °F 60 °F 82 °F (1903)
Min Temperature 38 °F 38 °F 8 °F (1940)
Degree Days  
Heating Degree Days 13 16  
Month to date heating degree days 278 432  
Since 1 July heating degree days 1090 1221  
Moisture  
Dew Point 39 °F    
Average Humidity 67    
Maximum Humidity 100    
Minimum Humidity 34    
Precipitation  
Precipitation 0.00 in 0.20 in 4.75 in (1994)
Month to date precipitation 5.23 4.39  
Year to date precipitation 5.23 4.39  
Snow  
Snow 0.00 in - T in (1948)
Month to date snowfall 0.0  
Since 1 July snowfall 0.0  
Snow Depth 0.00 in    
Sea Level Pressure  
Sea Level Pressure 30.07 in    
Wind  
Wind Speed 3 mph (South)    
Max Wind Speed 14 mph    
Max Gust Speed 17 mph    
Visibility 7 miles    
Events      
T = Trace of Precipitation, MM = Missing Value Source: NWS Daily Summary

Daily Weather History Graph

Daily Weather History Graph

Search for Another Location

Airport or City:

Trip Planner

Search our weather history database for the weather conditions in past years. The results will help you decide how hot, cold, wet, or windy it might be!

Date:

Astronomy

Jan. 27, 2012 Rise Set
Actual Time 7:05 AM CST 5:40 PM CST
Civil Twilight 6:40 AM CST 6:06 PM CST
Nautical Twilight 6:10 AM CST 6:35 PM CST
Astronomical Twilight 5:41 AM CST 7:04 PM CST
Moon 9:21 AM CST (1/27) 10:08 PM CST (1/27)
Length of Visible Light 11h 26m
Length of Day
10h 34m
Waxing Crescent, 20% of the Moon is Illuminated
Jan 27
Waxing Crescent
Jan 30
First Quarter
Feb 7
Full
Feb 14
Last Quarter
Feb 21
New

Hourly Weather History & Observations

Time (CST) Temp. Windchill Dew Point Humidity Pressure Visibility Wind Dir Wind Speed Gust Speed Precip Events Conditions
12:53 AM 46.9 °F - 44.1 °F 90% 30.03 in 10.0 mi West 3.5 mph - N/A   Clear
1:53 AM 45.0 °F 42.6 °F 43.0 °F 93% 30.03 in 10.0 mi West 4.6 mph - N/A   Clear
2:53 AM 44.1 °F - 42.1 °F 93% 30.04 in 7.0 mi Calm Calm - N/A   Clear
3:53 AM 43.0 °F - 42.1 °F 97% 30.05 in 7.0 mi Calm Calm - 0.01 in   Clear
4:53 AM 43.0 °F - 41.0 °F 93% 30.06 in 8.0 mi Calm Calm - N/A   Clear
5:07 AM 41.0 °F - 39.2 °F 93% 30.05 in 1.8 mi Calm Calm - N/A   Clear
5:16 AM 41.0 °F 39.0 °F 39.2 °F 93% 30.06 in 3.0 mi West 3.5 mph - N/A   Clear
5:43 AM 39.2 °F - 37.4 °F 93% 30.07 in 1.8 mi Calm Calm - N/A   Clear
5:53 AM 39.0 °F - 39.0 °F 100% 30.09 in 1.5 mi Calm Calm - N/A   Clear
5:59 AM 41.0 °F - 39.2 °F 93% 30.08 in 3.0 mi Calm Calm - N/A   Clear
6:22 AM 39.2 °F - 39.2 °F 100% 30.08 in 1.8 mi Calm Calm - N/A   Clear
6:30 AM 37.4 °F - 37.4 °F 100% 30.08 in 3.0 mi Calm Calm - N/A   Clear
6:53 AM 37.4 °F - 37.4 °F 100% 30.09 in 6.0 mi Calm Calm - N/A   Clear
7:12 AM 39.2 °F - 37.4 °F 93% 30.09 in 2.5 mi Calm Calm - N/A   Partly Cloudy
7:53 AM 39.9 °F - 39.0 °F 97% 30.12 in 5.0 mi Calm Calm - N/A   Clear
8:53 AM 45.0 °F - 43.0 °F 93% 30.14 in 8.0 mi Calm Calm - N/A   Clear
9:53 AM 51.1 °F - 44.1 °F 77% 30.14 in 10.0 mi Calm Calm - N/A   Clear
10:53 AM 57.0 °F - 43.0 °F 59% 30.14 in 10.0 mi Calm Calm - N/A   Clear
11:53 AM 60.1 °F - 34.0 °F 38% 30.11 in 10.0 mi Calm Calm - N/A   Clear
12:53 PM 62.1 °F - 33.1 °F 34% 30.08 in 10.0 mi SE 9.2 mph - N/A   Clear
1:53 PM 63.0 °F - 35.1 °F 35% 30.05 in 10.0 mi SE 5.8 mph - N/A   Clear
2:53 PM 64.0 °F - 37.0 °F 37% 30.02 in 10.0 mi SE 9.2 mph - N/A   Clear
3:53 PM 64.0 °F - 37.9 °F 38% 30.01 in 10.0 mi SSE 8.1 mph - N/A   Clear
4:53 PM 63.0 °F - 37.9 °F 40% 30.01 in 10.0 mi South 6.9 mph - N/A   Clear
5:53 PM 57.2 °F - 35.6 °F 44% 30.00 in 10.0 mi SSE 5.8 mph - N/A   Clear
6:53 PM 54.0 °F - 37.9 °F 55% 30.03 in 10.0 mi SSE 4.6 mph - N/A   Clear
7:53 PM 50.0 °F - 42.1 °F 74% 30.06 in 10.0 mi South 3.5 mph - N/A   Clear
8:53 PM 48.9 °F - 39.0 °F 69% 30.08 in 10.0 mi South 3.5 mph - N/A   Clear
9:53 PM 50.0 °F - 41.0 °F 71% 30.10 in 10.0 mi South 8.1 mph - N/A   Clear
10:53 PM 46.9 °F - 41.0 °F 80% 30.13 in 10.0 mi Calm Calm - N/A   Clear
11:53 PM 44.1 °F - 39.0 °F 82% 30.12 in 10.0 mi Calm Calm - N/A   Clear